Precipitable_Water
1.09 1.08 1.04 1.05 1.07 1.09 1.09 1.14 1.21 1.26 1.31 1.33 1.34 1.35 1.37 1.38 1.39 1.41 1.42 1.43 1.41 1.40 1.40 1.37 1.33 1.32 1.27 1.24 1.24 1.25 1.26 1.25 1.28 1.31 1.34 1.37 1.40 1.42 1.36 1.35 1.31 1.30 1.29 1.25 1.27 1.30 1.36 1.43 1.43 1.43 1.46 1.47 1.44 1.41 1.44 1.43 1.32 1.21 1.16 1.18 1.22 1.26 1.25
1.02 1.07 1.10 1.11 1.09 1.10 1.12 1.15 1.20 1.24 1.29 1.31 1.31 1.34 1.38 1.39 1.41 1.40 1.41 1.43 1.44 1.41 1.41 1.39 1.37 1.35 1.31 1.27 1.26 1.26 1.24 1.26 1.29 1.34 1.38 1.40 1.46 1.47 1.39 1.35 1.33 1.30 1.29 1.28 1.33 1.41 1.45 1.50 1.51 1.49 1.44 1.46 1.39 1.43 1.45 1.40 1.28 1.14 1.10 1.10 1.15 1.18 1.19
1.01 1.06 1.12 1.17 1.15 1.06 1.07 1.15 1.21 1.25 1.27 1.29 1.31 1.34 1.35 1.38 1.41 1.41 1.43 1.44 1.44 1.46 1.46 1.42 1.39 1.38 1.36 1.32 1.28 1.26 1.26 1.27 1.27 1.30 1.31 1.35 1.43 1.45 1.42 1.38 1.37 1.32 1.30 1.33 1.38 1.45 1.54 1.56 1.57 1.56 1.49 1.44 1.42 1.44 1.41 1.32 1.18 1.06 1.07 1.07 1.10 1.13 1.11
1.05 1.12 1.16 1.18 1.13 1.03 1.05 1.13 1.19 1.24 1.28 1.30 1.30 1.31 1.37 1.42 1.46 1.48 1.49 1.48 1.45 1.46 1.42 1.42 1.40 1.37 1.36 1.31 1.28 1.27 1.27 1.28 1.29 1.30 1.33 1.39 1.42 1.46 1.43 1.39 1.38 1.36 1.36 1.34 1.41 1.49 1.57 1.58 1.57 1.57 1.54 1.46 1.44 1.44 1.40 1.26 1.14 1.07 1.07 1.07 1.05 1.09 1.10
1.05 1.12 1.15 1.15 1.06 1.04 1.06 1.10 1.14 1.19 1.21 1.25 1.29 1.34 1.38 1.43 1.49 1.51 1.54 1.57 1.55 1.49 1.47 1.44 1.41 1.38 1.36 1.32 1.28 1.29 1.29 1.29 1.30 1.32 1.35 1.40 1.44 1.44 1.40 1.36 1.36 1.35 1.36 1.41 1.46 1.51 1.54 1.56 1.58 1.57 1.53 1.48 1.44 1.45 1.41 1.34 1.21 1.11 1.06 1.05 1.04 1.06 1.08
0.97 1.03 1.07 1.07 1.03 1.04 1.04 1.06 1.06 1.09 1.13 1.18 1.24 1.28 1.34 1.40 1.44 1.45 1.50 1.55 1.58 1.61 1.61 1.56 1.48 1.43 1.34 1.31 1.29 1.30 1.34 1.32 1.31 1.31 1.34 1.39 1.39 1.35 1.34 1.34 1.33 1.34 1.40 1.44 1.49 1.52 1.54 1.55 1.53 1.51 1.46 1.44 1.43 1.43 1.44 1.40 1.32 1.18 1.10 1.05 1.04 1.06 1.06
0.90 0.92 0.95 0.99 1.00 1.01 1.02 1.02 1.02 1.05 1.11 1.14 1.17 1.22 1.29 1.34 1.35 1.40 1.48 1.51 1.57 1.57 1.60 1.55 1.50 1.46 1.39 1.35 1.29 1.28 1.28 1.28 1.28 1.28 1.35 1.37 1.35 1.31 1.32 1.33 1.32 1.35 1.44 1.50 1.51 1.54 1.54 1.51 1.47 1.45 1.44 1.41 1.39 1.38 1.38 1.38 1.34 1.28 1.17 1.09 1.03 1.07 1.07
0.84 0.86 0.92 0.93 0.95 0.97 0.97 0.99 0.99 1.03 1.12 1.18 1.16 1.17 1.21 1.27 1.33 1.36 1.38 1.45 1.54 1.60 1.59 1.57 1.52 1.47 1.44 1.41 1.34 1.25 1.25 1.26 1.26 1.28 1.33 1.31 1.30 1.27 1.29 1.30 1.30 1.38 1.45 1.46 1.52 1.55 1.51 1.46 1.46 1.44 1.41 1.38 1.36 1.35 1.35 1.35 1.33 1.31 1.21 1.11 1.06 1.05 1.10
0.84 0.86 0.88 0.91 0.93 0.94 0.92 0.94 0.97 0.99 1.05 1.09 1.08 1.11 1.19 1.27 1.30 1.32 1.39 1.46 1.52 1.54 1.57 1.59 1.54 1.51 1.48 1.43 1.36 1.28 1.25 1.23 1.23 1.25 1.27 1.25 1.26 1.23 1.24 1.27 1.31 1.40 1.42 1.43 1.47 1.49 1.49 1.47 1.46 1.41 1.39 1.36 1.36 1.34 1.34 1.33 1.32 1.32 1.23 1.12 1.06 1.04 1.07
0.80 0.86 0.89 0.91 0.92 0.90 0.91 0.95 1.00 1.05 1.10 1.12 1.11 1.13 1.16 1.21 1.28 1.38 1.45 1.48 1.50 1.50 1.54 1.58 1.57 1.54 1.49 1.43 1.37 1.32 1.26 1.21 1.23 1.24 1.23 1.21 1.21 1.18 1.19 1.25 1.34 1.41 1.42 1.42 1.41 1.42 1.47 1.48 1.46 1.43 1.39 1.36 1.36 1.36 1.35 1.34 1.34 1.32 1.27 1.15 1.06 1.02 1.03
0.80 0.81 0.84 0.91 0.94 0.94 0.95 0.98 0.99 1.01 1.05 1.08 1.11 1.13 1.15 1.22 1.27 1.34 1.40 1.48 1.49 1.50 1.55 1.58 1.59 1.54 1.49 1.44 1.38 1.34 1.26 1.20 1.23 1.21 1.19 1.16 1.16 1.15 1.19 1.24 1.32 1.38 1.36 1.36 1.37 1.40 1.42 1.45 1.48 1.44 1.40 1.36 1.36 1.37 1.38 1.37 1.36 1.33 1.28 1.21 1.13 1.05 1.03
0.76 0.80 0.83 0.86 0.92 0.97 0.96 0.96 0.99 1.01 1.02 1.05 1.08 1.14 1.20 1.23 1.26 1.30 1.35 1.41 1.48 1.49 1.52 1.55 1.60 1.57 1.50 1.45 1.38 1.31 1.24 1.22 1.22 1.19 1.16 1.13 1.12 1.13 1.18 1.24 1.30 1.32 1.31 1.31 1.30 1.35 1.39 1.41 1.44 1.43 1.39 1.38 1.39 1.40 1.40 1.41 1.39 1.38 1.34 1.28 1.19 1.10 1.07
0.74 0.77 0.81 0.85 0.88 0.94 0.96 0.95 0.96 0.98 1.02 1.07 1.10 1.12 1.15 1.20 1.25 1.29 1.32 1.37 1.42 1.46 1.49 1.53 1.56 1.57 1.51 1.46 1.39 1.31 1.25 1.21 1.19 1.18 1.16 1.12 1.09 1.12 1.17 1.22 1.26 1.26 1.25 1.28 1.27 1.28 1.31 1.37 1.39 1.43 1.42 1.40 1.41 1.40 1.40 1.42 1.43 1.42 1.41 1.37 1.28 1.17 1.10
0.75 0.80 0.84 0.89 0.92 0.95 0.94 0.95 0.93 0.97 1.03 1.06 1.09 1.13 1.16 1.20 1.24 1.26 1.28 1.29 1.35 1.41 1.46 1.52 1.54 1.55 1.52 1.44 1.37 1.32 1.27 1.22 1.19 1.17 1.15 1.11 1.10 1.12 1.15 1.18 1.22 1.23 1.27 1.29 1.25 1.22 1.24 1.29 1.33 1.39 1.40 1.39 1.38 1.41 1.43 1.44 1.45 1.46 1.45 1.43 1.37 1.26 1.16
0.75 0.81 0.86 0.91 0.95 0.98 0.97 0.87 0.86 0.91 1.00 1.07 1.11 1.12 1.16 1.19 1.23 1.27 1.30 1.32 1.35 1.38 1.41 1.50 1.53 1.54 1.51 1.43 1.34 1.31 1.30 1.26 1.22 1.19 1.15 1.11 1.10 1.10 1.12 1.14 1.16 1.21 1.25 1.27 1.26 1.25 1.25 1.29 1.33 1.37 1.39 1.40 1.41 1.44 1.46 1.46 1.48 1.49 1.47 1.44 1.42 1.34 1.21
0.78 0.84 0.87 0.92 0.96 0.95 0.87 0.81 0.82 0.87 0.92 0.97 1.02 1.08 1.14 1.20 1.23 1.25 1.26 1.28 1.33 1.36 1.44 1.52 1.51 1.51 1.48 1.40 1.34 1.34 1.32 1.27 1.22 1.19 1.17 1.13 1.09 1.08 1.09 1.11 1.13 1.17 1.21 1.24 1.28 1.31 1.32 1.33 1.36 1.37 1.38 1.39 1.44 1.47 1.48 1.49 1.52 1.53 1.52 1.50 1.46 1.37 1.27
0.83 0.85 0.88 0.89 0.85 0.84 0.83 0.86 0.88 0.88 0.89 0.91 0.92 0.94 1.00 1.08 1.17 1.23 1.26 1.27 1.31 1.35 1.43 1.50 1.51 1.49 1.44 1.38 1.37 1.37 1.36 1.30 1.23 1.21 1.17 1.15 1.14 1.14 1.14 1.15 1.17 1.20 1.25 1.30 1.33 1.35 1.37 1.37 1.38 1.40 1.44 1.46 1.47 1.49 1.52 1.54 1.56 1.57 1.56 1.55 1.52 1.43 1.33
0.84 0.91 0.90 0.88 0.91 0.94 0.96 0.91 0.90 0.90 0.90 0.90 0.94 0.97 1.02 1.12 1.20 1.25 1.24 1.27 1.31 1.35 1.44 1.47 1.47 1.44 1.41 1.39 1.40 1.38 1.37 1.34 1.29 1.23 1.20 1.21 1.22 1.24 1.25 1.26 1.29 1.32 1.37 1.41 1.44 1.47 1.48 1.46 1.46 1.49 1.51 1.55 1.57 1.57 1.58 1.59 1.63 1.63 1.62 1.60 1.55 1.48 1.40
0.84 0.97 0.93 0.93 0.96 0.96 0.93 0.93 0.93 0.94 0.96 0.97 0.95 0.97 0.98 1.03 1.15 1.22 1.24 1.26 1.34 1.43 1.45 1.42 1.40 1.40 1.40 1.40 1.38 1.35 1.36 1.37 1.33 1.28 1.26 1.27 1.30 1.33 1.34 1.36 1.39 1.43 1.45 1.47 1.54 1.58 1.56 1.55 1.55 1.55 1.60 1.63 1.62 1.62 1.64 1.65 1.68 1.68 1.67 1.63 1.58 1.53 1.47
0.84 0.96 0.94 0.83 0.87 0.97 1.00 1.01 1.00 1.01 1.01 1.03 1.04 1.00 1.00 1.04 1.08 1.16 1.25 1.32 1.44 1.44 1.40 1.36 1.36 1.36 1.36 1.37 1.34 1.33 1.34 1.39 1.40 1.37 1.36 1.39 1.40 1.42 1.43 1.45 1.47 1.51 1.56 1.59 1.62 1.60 1.59 1.61 1.60 1.63 1.67 1.70 1.69 1.67 1.67 1.68 1.71 1.71 1.69 1.66 1.61 1.56 1.52
0.58 0.64 0.84 0.84 0.79 0.86 1.01 1.08 1.05 1.05 1.06 1.06 1.08 1.11 1.07 1.05 1.05 1.16 1.29 1.38 1.42 1.43 1.37 1.33 1.31 1.31 1.31 1.30 1.31 1.33 1.34 1.38 1.43 1.43 1.47 1.49 1.50 1.51 1.53 1.55 1.59 1.62 1.65 1.66 1.64 1.62 1.61 1.63 1.64 1.69 1.72 1.73 1.73 1.70 1.69 1.73 1.76 1.73 1.70 1.66 1.62 1.59 1.55
0.60 0.61 0.71 0.85 0.90 1.00 1.01 0.96 0.93 0.92 0.97 1.06 1.10 1.17 1.16 1.08 1.06 1.11 1.22 1.30 1.33 1.37 1.34 1.29 1.27 1.26 1.29 1.26 1.27 1.28 1.32 1.38 1.42 1.48 1.52 1.52 1.55 1.56 1.58 1.62 1.65 1.66 1.72 1.72 1.71 1.71 1.70 1.71 1.71 1.69 1.70 1.72 1.72 1.70 1.70 1.74 1.76 1.73 1.71 1.68 1.63 1.60 1.54
0.48 0.54 0.63 0.72 0.93 1.03 1.05 1.04 1.00 0.97 0.99 1.05 1.06 1.09 1.14 1.15 1.14 1.11 1.14 1.19 1.23 1.28 1.29 1.26 1.22 1.20 1.21 1.20 1.19 1.22 1.30 1.39 1.44 1.49 1.53 1.55 1.57 1.59 1.61 1.62 1.66 1.71 1.76 1.70 1.69 1.67 1.67 1.66 1.68 1.72 1.66 1.63 1.65 1.65 1.66 1.67 1.66 1.64 1.63 1.60 1.57 1.52 1.46
0.46 0.49 0.51 0.59 0.72 0.83 0.94 0.97 0.96 0.96 0.97 1.01 1.06 1.04 1.08 1.14 1.17 1.13 1.11 1.12 1.16 1.19 1.22 1.21 1.17 1.15 1.15 1.15 1.17 1.21 1.28 1.37 1.45 1.49 1.54 1.56 1.56 1.61 1.64 1.67 1.72 1.75 1.78 1.71 1.69 1.67 1.67 1.70 1.70 1.66 1.65 1.64 1.63 1.65 1.61 1.56 1.53 1.52 1.52 1.51 1.50 1.47 1.42
0.43 0.46 0.49 0.49 0.55 0.71 0.88 1.01 1.08 1.09 1.04 1.02 1.01 1.06 1.09 1.13 1.15 1.13 1.09 1.09 1.11 1.14 1.14 1.13 1.12 1.12 1.10 1.11 1.17 1.25 1.34 1.42 1.47 1.50 1.53 1.55 1.58 1.63 1.65 1.69 1.74 1.80 1.83 1.79 1.76 1.72 1.73 1.70 1.62 1.63 1.67 1.70 1.69 1.70 1.63 1.53 1.50 1.51 1.51 1.50 1.47 1.42 1.37
0.54 0.48 0.52 0.50 0.47 0.58 0.73 0.82 0.82 0.88 0.97 1.02 1.02 1.05 1.11 1.16 1.15 1.11 1.09 1.10 1.12 1.12 1.10 1.08 1.08 1.09 1.11 1.16 1.24 1.32 1.42 1.48 1.51 1.55 1.57 1.57 1.61 1.67 1.73 1.81 1.83 1.84 1.82 1.81 1.77 1.71 1.64 1.60 1.61 1.60 1.63 1.68 1.68 1.66 1.60 1.51 1.46 1.45 1.44 1.39 1.35 1.33 1.31
0.65 0.67 0.59 0.53 0.54 0.60 0.66 0.79 0.70 0.68 0.78 0.95 1.10 1.17 1.20 1.18 1.11 1.07 1.06 1.09 1.10 1.08 1.09 1.10 1.12 1.19 1.25 1.28 1.31 1.36 1.41 1.49 1.54 1.57 1.62 1.64 1.66 1.74 1.79 1.84 1.86 1.88 1.85 1.79 1.72 1.63 1.57 1.56 1.58 1.58 1.59 1.61 1.62 1.61 1.54 1.50 1.43 1.41 1.38 1.35 1.32 1.32 1.30
0.59 0.64 0.82 0.84 0.74 0.64 0.66 0.68 0.78 0.80 0.82 0.92 1.01 1.08 1.11 1.12 1.07 1.03 1.04 1.08 1.08 1.05 1.09 1.22 1.31 1.37 1.40 1.38 1.38 1.41 1.44 1.50 1.60 1.65 1.66 1.71 1.75 1.77 1.80 1.90 1.94 1.90 1.84 1.70 1.59 1.56 1.54 1.53 1.50 1.48 1.49 1.52 1.54 1.52 1.49 1.50 1.46 1.40 1.35 1.33 1.32 1.32 1.34
0.64 0.61 0.73 0.84 0.88 0.91 0.70 0.71 0.80 0.95 1.02 1.13 1.17 1.18 1.25 1.26 1.18 1.12 1.09 1.06 1.09 1.15 1.24 1.38 1.43 1.46 1.50 1.51 1.50 1.51 1.55 1.59 1.60 1.63 1.68 1.71 1.77 1.80 1.84 1.90 1.87 1.80 1.66 1.54 1.52 1.52 1.51 1.49 1.48 1.45 1.43 1.45 1.48 1.46 1.47 1.49 1.46 1.40 1.35 1.34 1.34 1.34 1.35
0.81 0.74 0.68 0.76 0.88 0.95 1.09 0.90 0.89 1.01 1.18 1.28 1.39 1.42 1.39 1.31 1.24 1.22 1.18 1.14 1.23 1.32 1.39 1.44 1.48 1.53 1.55 1.59 1.60 1.61 1.63 1.67 1.69 1.71 1.73 1.77 1.82 1.86 1.86 1.82 1.71 1.57 1.48 1.46 1.45 1.44 1.45 1.45 1.44 1.44 1.44 1.43 1.42 1.43 1.46 1.47 1.43 1.39 1.35 1.34 1.34 1.34 1.35
0.86 0.86 0.86 0.84 0.77 0.87 0.94 1.09 1.14 1.16 1.31 1.49 1.47 1.38 1.31 1.36 1.32 1.29 1.24 1.31 1.40 1.45 1.44 1.46 1.49 1.52 1.55 1.61 1.67 1.69 1.73 1.76 1.76 1.77 1.79 1.84 1.87 1.84 1.76 1.59 1.47 1.39 1.42 1.41 1.40 1.41 1.40 1.41 1.40 1.38 1.42 1.43 1.39 1.39 1.40 1.39 1.34 1.29 1.27 1.28 1.32 1.34 1.37
0.93 0.95 0.96 0.97 0.96 0.89 0.96 1.05 1.07 1.21 1.31 1.42 1.59 1.72 1.79 1.62 1.38 1.22 1.27 1.41 1.50 1.53 1.53 1.52 1.52 1.55 1.60 1.67 1.74 1.79 1.82 1.82 1.85 1.87 1.88 1.90 1.88 1.71 1.52 1.40 1.38 1.34 1.34 1.31 1.31 1.33 1.31 1.30 1.28 1.31 1.39 1.37 1.33 1.27 1.25 1.27 1.23 1.23 1.25 1.27 1.32 1.34 1.34
0.94 0.98 0.97 0.98 1.05 1.11 1.09 0.98 1.01 1.06 1.11 1.26 1.49 1.66 1.85 1.92 1.90 1.55 1.45 1.45 1.54 1.61 1.65 1.65 1.64 1.65 1.71 1.78 1.84 1.89 1.91 1.90 1.88 1.87 1.86 1.72 1.52 1.45 1.42 1.39 1.32 1.26 1.24 1.25 1.26 1.29 1.28 1.26 1.26 1.29 1.33 1.28 1.26 1.20 1.19 1.18 1.21 1.22 1.22 1.24 1.27 1.27 1.27
0.94 0.99 1.07 1.09 1.10 1.15 1.20 1.16 1.06 1.03 1.03 1.05 1.17 1.31 1.46 1.77 2.14 2.10 1.77 1.62 1.69 1.76 1.82 1.84 1.82 1.79 1.85 1.94 2.00 2.04 2.03 1.94 1.90 1.62 1.42 1.37 1.36 1.33 1.33 1.32 1.28 1.23 1.22 1.25 1.26 1.25 1.28 1.29 1.26 1.24 1.24 1.22 1.20 1.17 1.14 1.14 1.18 1.20 1.20 1.20 1.19 1.18 1.19
1.00 1.01 1.05 1.09 1.13 1.12 1.13 1.20 1.20 1.14 1.09 1.07 1.17 1.28 1.38 1.63 1.93 2.19 2.04 1.93 1.89 1.90 1.92 1.82 1.89 1.95 1.94 1.99 1.90 1.90 1.88 1.69 1.42 1.34 1.27 1.26 1.28 1.28 1.30 1.28 1.26 1.24 1.27 1.33 1.39 1.39 1.33 1.28 1.26 1.26 1.25 1.19 1.18 1.12 1.10 1.13 1.15 1.21 1.26 1.21 1.18 1.13 1.11
1.04 1.03 1.07 1.15 1.18 1.17 1.16 1.20 1.25 1.24 1.21 1.22 1.29 1.34 1.45 1.49 1.75 1.91 2.01 2.05 1.98 2.03 1.99 1.96 1.99 1.87 1.81 1.87 1.83 1.66 1.49 1.39 1.34 1.26 1.22 1.21 1.19 1.19 1.23 1.32 1.37 1.37 1.30 1.29 1.39 1.45 1.44 1.38 1.29 1.27 1.23 1.16 1.21 1.23 1.16 1.14 1.20 1.30 1.29 1.23 1.18 1.15 1.11
1.07 1.07 1.11 1.19 1.20 1.20 1.17 1.20 1.27 1.27 1.26 1.33 1.38 1.39 1.50 1.56 1.72 1.94 2.02 2.06 2.05 1.99 1.89 1.87 1.81 1.92 1.87 1.68 1.50 1.43 1.38 1.34 1.29 1.25 1.22 1.22 1.20 1.20 1.19 1.23 1.34 1.40 1.41 1.39 1.38 1.40 1.37 1.34 1.31 1.29 1.29 1.24 1.23 1.30 1.33 1.33 1.34 1.31 1.28 1.25 1.22 1.18 1.14
1.15 1.16 1.26 1.53 1.54 1.41 1.41 1.29 1.23 1.26 1.34 1.41 1.45 1.47 1.47 1.67 2.00 2.16 2.12 2.02 1.99 1.97 1.95 1.95 1.80 1.59 1.47 1.41 1.38 1.35 1.32 1.29 1.25 1.26 1.25 1.25 1.25 1.24 1.20 1.19 1.18 1.28 1.39 1.40 1.39 1.34 1.30 1.27 1.29 1.29 1.29 1.31 1.29 1.28 1.30 1.36 1.35 1.31 1.29 1.26 1.20 1.13 1.06
Wind_Speed
26 25 25 24 24 23 23 23 23 22 23 23 23 24 23 22 21 21 21 22 23 23 23 23 23 23 23 22 22 21 20 19 18 17 17 16 15 14 14 13 12 11 11 10 10 9 9 8 8 7 6 6 7 7 7 8 8 9 8 8 9 9 9
27 25 25 24 23 23 22 23 23 22 23 24 24 24 23 22 22 22 22 22 22 22 22 22 23 23 23 23 22 22 21 20 19 18 17 16 15 14 14 14 13 12 11 11 10 10 9 8 8 8 7 7 8 8 8 9 9 9 9 9 9 9 9
27 26 25 24 24 23 23 22 23 23 23 24 24 24 24 23 23 22 22 22 22 22 22 22 22 22 22 23 23 22 22 21 20 19 18 17 16 15 14 14 14 13 12 11 10 10 9 9 9 9 8 9 9 9 9 9 9 9 9 9 9 9 10
26 26 26 25 25 25 24 23 23 23 24 25 25 25 24 24 23 23 23 23 23 22 22 22 22 22 22 23 23 23 22 22 21 20 19 18 17 16 15 15 14 13 12 11 11 10 9 10 10 9 9 10 10 10 10 9 9 9 9 9 10 10 10
25 25 26 26 26 26 24 23 23 24 25 26 26 25 25 24 24 24 24 23 23 23 22 22 22 21 22 22 23 23 23 22 21 20 19 18 18 17 16 16 15 14 13 12 11 11 11 10 10 10 10 10 10 10 10 10 10 10 10 10 10 11 11
26 25 25 26 26 26 25 25 24 24 26 27 26 25 25 25 26 26 25 24 23 23 22 22 22 21 21 22 22 23 23 22 22 21 20 19 18 17 17 16 16 15 14 13 12 12 12 11 10 10 10 10 10 10 10 10 11 10 11 11 12 12 12
27 25 25 25 26 26 25 25 24 23 25 26 26 26 25 26 27 27 26 25 24 23 23 23 22 21 21 21 22 23 23 22 22 21 20 19 19 18 18 17 16 15 14 13 13 13 13 12 11 10 10 10 10 10 11 11 11 12 12 12 13 14 14
29 27 26 26 25 26 26 25 24 23 24 26 26 26 26 26 27 28 27 26 25 24 23 23 23 22 21 21 22 23 23 23 22 21 20 20 19 19 18 17 17 16 15 14 14 13 13 12 11 11 11 11 11 12 12 12 12 12 13 13 14 14 15
30 29 28 28 27 27 26 25 24 23 24 26 27 27 26 26 26 27 28 27 26 25 24 24 23 23 22 22 23 23 23 23 22 22 21 21 20 20 19 18 17 17 16 15 14 13 13 13 12 12 13 13 13 13 13 13 14 14 14 15 15 15 15
28 29 29 29 29 27 25 24 24 23 23 24 26 26 26 26 26 26 27 27 27 26 26 25 24 23 23 23 23 23 24 24 23 23 22 22 21 20 20 19 18 17 17 16 15 14 14 13 13 13 14 14 14 14 14 14 15 15 16 16 17 17 17
27 28 29 30 28 26 25 24 24 24 23 23 25 26 27 26 26 26 26 27 27 26 26 25 24 24 24 24 23 24 24 24 24 24 24 23 22 21 20 19 19 18 18 17 16 16 15 15 15 15 15 15 15 15 15 15 16 16 17 18 18 18 18
26 27 28 29 28 25 25 25 24 24 23 23 24 25 26 26 26 25 25 26 26 26 26 26 25 25 25 25 24 24 25 25 25 25 24 24 23 22 21 20 20 19 19 18 17 17 16 16 16 16 16 17 17 16 17 17 17 18 18 18 19 19 20
26 27 27 27 27 26 26 26 25 24 23 23 24 25 25 25 25 24 24 25 25 26 26 26 26 25 25 25 25 25 25 25 25 25 25 24 24 23 22 21 21 20 20 19 18 18 18 18 18 17 17 17 17 18 18 18 18 19 19 19 19 20 20
24 27 28 27 27 27 27 26 26 25 24 23 24 25 25 25 25 25 25 25 25 26 26 26 26 26 25 26 26 25 25 26 26 26 26 25 24 24 23 22 22 21 20 20 19 19 19 18 18 18 18 18 18 19 19 19 19 19 19 20 20 20 21
21 23 25 26 26 27 26 26 26 26 25 24 24 26 26 26 26 26 25 25 25 26 26 27 27 26 26 26 27 26 26 26 26 26 26 26 25 24 24 23 23 22 21 20 20 20 19 19 19 19 19 19 19 20 20 20 20 20 21 21 21 21 22
20 21 24 26 27 28 27 27 27 26 26 25 25 26 27 27 26 26 26 26 26 26 26 27 27 26 26 27 27 26 26 26 26 26 26 26 26 25 25 24 23 23 22 21 21 20 20 20 20 20 21 20 20 20 21 21 22 22 22 22 23 23 23
21 22 24 26 27 28 28 28 28 27 27 27 26 27 28 28 28 28 27 27 27 27 27 27 27 27 27 27 27 27 26 26 26 26 26 26 25 25 25 24 23 23 22 21 21 20 20 20 21 21 21 21 21 21 22 22 23 23 23 23 24 24 25
23 23 24 25 27 28 29 30 29 28 28 28 27 28 29 29 28 28 28 28 28 28 27 27 27 27 27 27 27 27 27 27 27 26 26 26 25 25 25 24 23 22 21 21 21 20 20 20 21 21 22 22 22 22 23 23 23 23 23 24 25 25 25
26 26 27 27 28 30 31 31 30 29 28 28 29 29 29 29 29 29 29 29 29 29 28 27 27 27 27 28 28 28 28 27 27 27 27 26 25 25 25 24 23 22 22 21 21 20 20 21 21 21 22 22 22 23 23 24 24 24 24 25 25 25 25
28 29 30 30 30 31 31 30 29 28 27 28 30 31 30 29 29 30 30 29 29 29 29 28 27 27 28 28 29 29 28 28 27 27 26 26 25 25 25 24 23 22 22 21 21 21 21 21 21 22 22 22 22 23 24 24 25 24 25 25 25 25 25
30 31 32 32 32 32 32 30 29 28 28 28 29 30 31 30 30 30 30 29 29 30 30 30 28 27 28 28 29 29 29 29 28 27 27 26 25 25 25 24 24 23 22 22 22 22 22 22 22 22 21 22 22 23 24 25 24 24 24 24 24 25 25
29 30 31 33 33 34 33 32 31 30 29 28 29 30 32 32 31 30 30 30 30 31 31 31 29 28 28 28 29 30 29 29 29 28 28 27 26 25 25 25 24 23 23 22 22 22 22 22 22 21 21 22 22 23 24 24 23 23 24 24 24 25 25
29 29 30 31 34 35 36 36 35 34 32 30 29 30 32 32 32 31 30 30 31 31 32 32 31 30 29 29 29 30 30 30 30 29 28 27 27 26 25 24 24 23 23 23 22 22 23 23 22 22 22 22 22 23 23 23 23 23 23 24 23 23 24
31 31 31 30 31 34 36 37 37 36 35 34 33 33 33 33 32 32 31 31 31 31 32 32 32 31 30 30 30 30 30 30 30 29 28 28 27 26 25 24 24 23 23 23 23 23 23 23 22 22 22 22 22 23 23 23 23 23 23 23 23 23 23
31 32 33 32 31 32 34 36 37 36 35 36 37 37 36 35 34 34 33 32 32 32 32 33 34 34 32 31 31 30 30 30 30 30 29 28 28 27 26 25 24 23 23 23 24 24 23 22 22 21 21 22 22 22 22 22 21 21 22 22 23 23 23
29 31 32 34 35 35 36 38 38 38 37 38 38 38 39 39 37 36 35 34 34 34 34 35 36 35 34 33 31 31 31 31 30 30 30 29 28 27 26 25 24 24 24 24 24 23 22 22 21 21 21 21 21 21 21 20 20 21 21 22 22 23 23
28 29 30 33 35 37 38 40 41 41 41 41 40 39 40 41 40 39 38 37 37 37 36 36 36 36 35 34 33 32 32 31 31 31 30 29 29 27 26 25 25 24 24 24 23 22 21 21 21 21 20 20 20 21 20 20 20 20 21 21 22 22 22
28 29 29 30 32 34 36 38 42 43 44 45 45 43 42 42 42 41 40 39 40 40 38 37 36 36 36 35 34 33 32 32 31 31 30 29 28 27 26 25 25 24 23 23 22 21 21 21 21 20 20 20 21 21 21 20 20 20 20 21 22 22 22
26 28 28 26 27 30 32 34 38 42 43 45 45 44 44 43 43 42 42 42 43 42 39 37 37 36 36 35 35 33 32 31 31 31 30 29 28 27 26 25 24 23 23 22 21 21 20 21 21 21 21 21 21 21 21 21 20 20 21 21 22 22 22
26 27 28 26 26 27 28 30 34 39 41 42 43 44 45 46 45 44 44 44 43 42 40 39 38 37 36 36 35 34 33 32 31 30 29 28 27 26 25 24 24 23 22 22 21 21 21 21 20 20 21 21 20 20 20 20 21 20 21 21 22 22 22
27 27 27 27 27 27 26 27 31 35 37 39 41 43 45 47 47 46 45 45 44 43 42 41 39 38 37 36 36 35 34 33 31 30 28 28 27 26 25 24 24 22 21 21 21 21 20 20 20 21 21 21 20 20 20 21 21 21 20 20 21 20 21
29 28 28 28 28 29 29 28 29 31 34 36 38 40 42 46 48 48 46 45 44 44 43 42 40 38 37 36 36 36 35 33 31 29 28 27 26 25 25 24 23 21 20 21 20 20 19 19 20 22 22 21 20 20 20 21 21 20 20 20 19 19 19
29 30 30 30 30 30 31 31 31 32 33 35 36 38 39 41 45 47 47 46 45 44 43 41 38 36 35 35 35 35 35 33 31 29 27 26 25 24 24 23 21 20 20 20 20 20 20 21 22 23 21 20 20 20 20 20 20 20 20 19 19 19 19
29 30 31 32 32 32 32 33 33 34 35 36 38 39 39 39 38 41 44 44 43 42 41 39 36 33 32 32 33 33 32 30 28 26 25 24 24 23 22 21 21 20 20 20 20 21 21 22 23 22 21 20 20 20 20 20 20 20 20 19 19 19 19
28 29 30 32 33 33 34 34 34 34 35 36 37 38 38 37 34 34 38 40 40 39 37 35 32 31 30 29 29 29 27 26 25 25 24 23 22 21 21 20 21 20 20 20 20 20 21 21 22 22 22 22 21 20 19 20 20 20 20 19 19 19 19
25 27 28 30 32 34 34 34 34 33 32 33 34 35 36 36 34 33 35 37 37 36 34 31 30 28 27 26 27 26 25 24 24 24 23 22 22 21 20 19 20 20 20 20 21 21 22 22 23 23 23 23 22 21 20 20 20 19 19 19 19 19 20
22 22 24 28 32 33 33 33 33 32 32 31 31 32 33 34 33 32 33 34 33 31 29 28 28 27 26 26 27 26 24 24 23 23 22 22 21 20 19 19 19 20 21 22 23 23 23 22 22 21 21 22 21 21 21 21 20 19 18 18 19 19 19
19 18 18 20 24 28 30 31 31 30 29 28 28 29 30 30 29 29 29 29 28 27 27 27 27 27 26 26 25 25 24 23 23 22 21 21 20 20 20 20 20 21 21 22 22 22 20 19 18 18 18 19 20 20 20 20 19 18 18 18 18 19 19
Wind_Direction
217 217 219 221 221 223 223 223 224 225 224 222 220 217 216 218 220 221 221 221 221 222 221 222 222 222 222 223 224 224 224 225 226 226 227 228 230 229 230 230 229 227 225 224 226 230 234 237 238 242 247 250 256 268 282 293 301 305 310 315 317 317 320
218 218 219 221 223 224 224 224 226 226 223 221 220 218 217 218 220 221 220 219 220 220 221 221 222 222 223 223 223 222 223 224 225 226 227 227 228 228 228 229 228 227 225 225 228 232 235 238 241 245 247 250 257 267 280 290 295 299 305 312 315 315 317
219 220 221 223 224 224 224 225 226 225 222 220 219 219 218 219 220 220 220 218 219 220 220 221 222 223 224 223 222 222 222 223 224 225 226 226 226 227 227 227 228 226 225 226 229 231 235 238 242 247 248 252 259 267 276 284 290 294 300 307 312 313 314
220 222 222 224 224 223 224 226 226 225 222 220 218 219 219 220 220 220 220 218 218 219 219 221 223 223 224 223 222 222 222 223 223 224 225 225 226 226 225 225 225 225 226 228 229 232 236 240 243 247 250 254 260 267 274 280 285 291 297 302 306 309 311
220 223 225 225 222 221 224 227 227 225 223 221 220 220 221 221 220 219 219 219 219 219 220 222 223 223 224 222 221 222 222 222 222 224 224 224 224 224 224 224 224 224 226 228 232 235 238 241 245 249 251 255 262 269 274 278 283 288 294 298 301 304 307
222 223 223 222 220 221 224 226 226 225 223 221 221 222 222 221 220 218 218 218 219 220 220 221 223 224 223 222 221 221 221 221 221 222 223 223 223 223 223 224 224 224 226 230 235 239 241 244 250 252 252 254 260 268 273 278 283 288 292 296 298 300 303
222 221 218 218 219 222 224 225 225 226 224 222 222 222 222 221 220 218 218 217 217 219 220 220 222 223 223 222 220 220 219 219 220 221 221 221 221 222 223 224 225 225 228 232 238 241 243 247 252 254 253 255 260 267 274 279 284 289 293 295 296 297 299
223 222 220 219 220 223 224 224 225 226 225 223 222 221 220 220 220 219 218 218 217 219 220 220 221 223 223 222 220 219 219 219 219 220 219 219 220 222 224 225 225 227 230 234 239 243 245 248 252 255 256 259 263 267 272 277 282 287 292 295 295 295 296
226 226 224 222 221 223 225 225 225 225 224 223 222 220 218 219 220 220 220 219 219 219 220 221 221 222 222 222 220 219 219 219 219 219 218 219 220 222 224 226 226 228 231 235 240 243 246 249 253 256 259 262 266 268 271 274 278 282 287 290 291 292 294
226 226 224 222 221 222 225 225 224 224 224 223 223 221 219 219 221 223 222 221 220 219 220 222 222 221 222 221 220 218 218 219 219 218 218 219 221 223 225 227 227 229 232 236 240 244 248 252 254 257 260 263 266 269 271 273 276 279 283 286 288 289 290
225 225 222 220 220 222 225 224 223 224 225 225 225 223 220 220 221 222 222 221 221 220 220 222 222 221 221 221 220 219 219 219 219 218 219 220 222 224 226 227 228 230 233 237 241 245 249 252 255 257 260 263 266 269 271 273 276 280 283 286 287 287 287
222 223 221 219 220 222 223 222 222 224 225 225 224 221 219 218 218 220 221 220 221 221 221 222 223 222 221 221 221 221 221 220 219 219 220 221 223 225 227 228 229 231 234 238 241 246 250 253 255 257 260 263 266 268 271 275 278 281 284 286 287 287 287
221 221 220 219 221 221 220 220 220 222 224 224 221 218 216 216 217 219 221 221 221 221 221 223 223 222 222 222 221 222 222 221 220 220 221 223 225 226 227 228 230 232 236 239 242 246 250 252 254 257 260 263 266 269 273 276 279 281 284 286 288 289 288
221 221 221 221 221 219 217 218 220 221 224 224 222 218 217 217 218 220 221 221 222 222 222 223 223 222 222 222 222 222 222 221 221 222 223 224 226 227 228 228 231 234 236 239 243 247 250 252 254 257 260 263 267 271 274 277 279 281 283 286 288 289 289
218 218 219 218 216 214 214 217 220 222 224 225 224 222 220 220 220 221 222 223 223 222 222 222 222 222 221 222 223 223 222 222 222 223 224 225 226 227 228 229 231 234 237 240 244 247 250 253 256 259 262 265 268 272 274 276 278 280 282 284 287 288 288
218 213 212 211 211 212 215 219 222 224 226 227 226 225 224 223 223 222 223 224 224 223 222 221 221 221 221 222 222 222 222 222 222 222 223 225 226 227 228 230 232 235 238 242 245 248 251 255 258 261 264 267 269 272 275 276 278 279 279 281 284 285 286
223 218 215 214 215 218 221 223 225 228 230 229 229 227 226 225 225 224 225 225 225 224 222 221 221 221 222 222 222 221 221 221 222 222 223 224 225 227 228 230 232 235 238 243 247 250 254 257 261 263 266 268 270 273 275 277 278 278 278 279 280 282 284
224 221 221 221 221 223 224 225 229 233 233 232 231 229 227 227 226 225 226 226 225 223 221 221 222 222 222 221 221 221 220 221 222 223 223 223 224 226 228 230 232 235 239 243 248 251 256 259 262 265 267 270 272 274 276 278 279 279 278 279 278 279 282
223 222 221 223 226 227 229 231 233 235 235 233 232 230 228 227 226 226 227 227 225 222 220 222 223 223 222 221 220 220 219 221 223 223 222 223 224 226 229 231 234 237 240 245 249 253 256 260 263 266 268 270 273 275 277 280 281 280 279 279 278 277 279
226 226 226 227 229 230 231 232 232 233 233 232 232 230 229 228 228 228 227 227 225 223 221 222 224 224 223 221 219 219 219 221 222 222 223 224 226 228 230 232 235 239 242 246 250 254 257 260 264 267 269 272 275 276 278 281 282 280 279 279 278 276 278
232 231 230 231 231 230 228 227 227 231 234 235 234 231 229 229 230 228 227 226 225 224 223 223 224 225 224 222 219 219 219 220 222 222 224 226 227 229 231 234 237 240 244 249 253 256 258 261 264 267 271 273 275 277 280 283 282 280 279 279 277 276 277
238 235 233 233 233 232 230 229 232 234 236 236 235 232 230 230 229 228 227 226 226 225 224 224 225 225 225 223 221 219 219 220 221 223 224 226 228 230 232 235 238 241 246 251 254 257 260 262 264 268 271 274 276 278 281 284 283 281 281 280 278 276 278
238 237 237 237 236 234 234 235 236 237 237 235 233 231 230 229 228 228 227 227 226 226 226 226 226 226 226 225 223 221 220 219 220 222 223 225 228 230 233 236 239 243 247 251 254 257 260 262 264 268 270 273 278 282 284 286 286 284 283 282 280 278 279
241 239 239 239 238 238 237 237 237 237 238 235 231 230 230 228 228 228 228 228 228 228 227 227 227 227 227 227 225 222 221 220 220 221 222 225 228 230 233 236 240 244 249 252 255 257 260 262 264 268 270 273 279 284 287 288 287 285 284 283 281 280 280
244 241 241 241 240 239 238 237 236 237 238 236 233 231 230 229 228 228 229 229 229 229 230 230 229 228 228 228 227 224 222 221 221 221 222 225 228 231 234 237 241 246 249 252 255 258 260 261 264 268 272 275 280 286 288 288 287 285 283 283 281 281 281
247 244 244 244 243 241 238 236 236 237 238 237 235 232 230 229 229 229 229 230 231 231 232 232 231 230 229 228 227 224 222 222 221 221 223 226 229 232 234 238 242 246 249 252 255 257 258 261 265 269 273 277 282 286 287 287 287 285 282 281 280 280 281
250 249 248 247 245 243 240 239 238 237 236 235 234 231 230 229 229 229 230 232 233 233 233 233 232 230 229 228 226 224 223 223 222 223 225 227 229 232 235 238 242 245 248 250 252 254 257 262 267 271 274 278 282 284 284 285 287 285 282 280 278 278 278
252 253 253 253 249 245 242 241 240 238 236 235 233 232 231 230 229 230 232 234 234 234 234 233 232 231 228 226 224 223 222 222 222 223 226 228 230 232 235 239 242 244 246 248 250 253 258 264 268 271 274 278 281 282 282 285 287 286 283 280 278 277 278
254 255 255 256 255 249 244 242 240 237 235 234 233 232 231 231 231 232 233 235 235 234 233 231 230 229 227 224 222 221 220 220 220 222 225 226 228 232 235 238 240 241 243 246 249 254 259 264 269 271 274 278 280 280 282 285 287 287 284 282 281 279 279
256 257 255 255 255 254 248 243 240 237 235 234 234 233 232 231 231 232 233 235 235 232 230 228 227 226 225 222 220 218 217 217 219 221 223 225 227 231 234 235 237 238 241 246 251 255 259 263 268 271 274 276 277 278 281 285 287 287 285 283 282 280 279
255 256 256 255 255 255 251 244 239 237 236 237 237 236 235 233 231 231 233 233 232 229 227 225 224 224 222 220 218 216 215 215 216 218 220 224 227 230 231 232 234 237 242 248 251 254 259 263 267 271 273 274 275 277 281 284 286 287 286 284 283 281 279
253 254 255 255 257 257 253 245 240 238 238 240 241 241 240 237 233 231 231 230 228 226 223 221 221 221 219 217 215 214 213 212 214 216 219 222 225 226 227 230 233 237 244 248 251 255 260 264 269 273 274 273 273 277 280 282 284 286 287 286 284 282 279
253 253 254 254 256 257 254 249 245 241 240 243 244 243 245 245 239 233 229 227 225 223 220 218 218 217 216 214 213 212 210 209 211 214 217 219 220 223 226 230 234 239 244 248 252 258 263 266 271 274 273 271 274 278 280 280 282 284 285 284 283 281 279
255 255 256 257 257 257 255 253 250 246 244 246 246 244 246 250 246 236 228 223 219 216 213 212 213 212 212 212 212 211 208 206 206 209 212 215 218 222 226 231 235 240 246 251 256 260 264 268 271 272 270 271 275 277 277 279 281 282 282 281 279 278 279
258 257 259 261 260 258 256 254 252 251 249 248 248 246 245 247 246 237 225 216 210 207 206 207 209 210 212 213 210 206 203 202 203 206 210 214 218 224 229 234 237 241 248 256 261 263 264 268 271 271 270 272 274 274 275 278 280 281 280 279 276 276 277
262 260 262 265 264 260 257 253 251 251 249 247 246 246 243 243 243 235 221 211 206 204 205 207 209 209 208 205 200 196 197 200 204 208 211 215 220 226 231 237 242 246 251 257 263 268 270 273 275 273 271 271 272 272 273 276 279 279 278 276 275 276 277
270 267 268 270 267 260 255 250 248 247 248 247 246 245 243 242 238 228 215 207 204 204 205 205 204 201 198 194 193 196 201 205 208 211 215 219 224 227 231 237 244 252 257 261 266 272 276 278 277 275 272 270 269 270 272 275 276 276 275 274 275 277 279
277 273 271 274 272 264 255 247 243 242 243 243 242 241 240 236 227 216 207 202 200 200 199 197 194 192 192 194 197 202 207 210 212 215 218 223 227 231 235 241 248 257 263 267 270 274 277 278 277 275 273 272 269 268 270 272 272 273 274 274 276 278 280